This is the latest recevied weather packets stored in our database for station/object WX1NWA. If no packets are shown the sender has not sent any weather packets the latest 10 day(s).
| Time | Temp. | Humidity | Pressure | Rain* | Wind** | Luminosity | Snow |
|---|---|---|---|---|---|---|---|
| 1777851029 | 21.11° C | 54% | 1017.4 hPa | 0 mm | - | 51 W/m² | - |
| 1777850726 | 21.11° C | 53% | 1017.2 hPa | 0 mm | - | 44 W/m² | - |
| 1777850424 | 21.11° C | 53% | 1017.2 hPa | 0 mm | - | 35 W/m² | - |
| 1777850121 | 21.11° C | 53% | 1017.6 hPa | 0 mm | - | 35 W/m² | - |
| 1777849818 | 21.11° C | 54% | 1017 hPa | 0 mm | - | 38 W/m² | - |
| 1777849514 | 21.67° C | 52% | 1017.5 hPa | 0 mm | - | 37 W/m² | - |
| 1777849212 | 21.67° C | 50% | 1017.4 hPa | 0 mm | - | 49 W/m² | - |
| 1777848909 | 21.67° C | 50% | 1017.6 hPa | 0 mm | - | 48 W/m² | - |
| 1777848604 | 21.67° C | 49% | 1017.2 hPa | 0 mm | - | 43 W/m² | - |
| 1777848301 | 22.22° C | 51% | 1017.6 hPa | 0 mm | - | 57 W/m² | - |
| 1777847999 | 21.67° C | 50% | 1017.7 hPa | 0 mm | - | 42 W/m² | - |
| 1777847697 | 21.67° C | 52% | 1017.6 hPa | 0 mm | - | 42 W/m² | - |
| 1777847392 | 21.67° C | 51% | 1017.6 hPa | 0 mm | - | 43 W/m² | - |
| 1777847091 | 22.22° C | 49% | 1017.7 hPa | 0 mm | - | 67 W/m² | - |
| 1777846788 | 22.22° C | 50% | 1017.6 hPa | 0 mm | - | 46 W/m² | - |
| 1777846487 | 21.67° C | 51% | 1017.5 hPa | 0 mm | - | 46 W/m² | - |
| 1777846183 | 22.22° C | 50% | 1017.6 hPa | 0 mm | - | 46 W/m² | - |
| 1777845879 | 21.67° C | 52% | 1017.9 hPa | 0 mm | - | 95 W/m² | - |
| 1777845577 | 21.67° C | 49% | 1017.8 hPa | 0 mm | - | 80 W/m² | - |
| 1777845273 | 22.22° C | 51% | 1017.7 hPa | 0 mm | - | 180 W/m² | - |
| 1777844971 | 22.78° C | 47% | 1017.7 hPa | 0 mm | - | 319 W/m² | - |
| 1777844669 | 22.78° C | 46% | 1017.8 hPa | 0 mm | - | 287 W/m² | - |
| 1777844366 | 22.78° C | 48% | 1018 hPa | 0 mm | - | 180 W/m² | - |
| 1777844064 | 22.78° C | 49% | 1018.2 hPa | 0 mm | - | 212 W/m² | - |
| 1777843760 | 23.33° C | 47% | 1018.3 hPa | 0 mm | - | 460 W/m² | - |
* Rain latest hour (hover to see other rain measurements)
** Current wind speed in m/s (hover to see current wind gust speed)